Powrót do katalogu

STARLINK-6182

AktywnyŁącznośćVLEO
NORAD 56878·PAYLOAD·🇺🇸 United States

Wystrzelony Jun 12, 2023 z Cape Canaveral Space Force Station

Loading…

Następne Przeloty (najbliższe 24 godziny)

TLE

ŚwieżeSource: CelesTrak SupGP

Epoka: Sep 14, 2026, 22:14 UTC

1 56878C 23083C   26257.92687500  .00020557  00000+0  74469-3 0  2577
2 56878  43.0007  96.7876 0002030 261.5108 265.2564 15.27562289    19

Śledź STARLINK-6182 w czasie rzeczywistym z AllMySat

Download on the App Store